Location: A�t Lahcen
(32.8243°N, 5.4246°W)
Time: 01:41:20
(UTC+00:00)

Cosmos 2369 Rocket - Pass Details

Date: 27 January 2021
Orbit: 830 x 851 km, 71.0° (Epoch: 27 February)

Event Time Altitude Azimuth Distance (km) Brightness Sun altitude
Rises 06:44:58 0° 344° (NNW) 3,379 5.0 -7.7°
Reaches altitude 10° 06:47:27 10° 349° (NNW) 2,441 4.3 -7.2°
Maximum altitude 06:52:57 57° 67° (ENE) 973 2.9 -6.1°
Drops below altitude 10° 06:58:25 10° 146° (SE) 2,428 5.5 -5.0°
Sets 07:00:53 0° 150° (SSE) 3,359 6.2 -4.5°
